COSMOS 1275 DEB, 42104

Orbit data source: Space-Track

COSMOS 1275 DEB, 42104 is space debris in LEO originally from a launch on Thu, 04 Jun 1981 UTC launched from the Plesetsk Missile And Space Complex (PKMTR). Debris objects in space refer to the collection of defunct objects orbiting the Earth. Examples of debris include non-operational satellites, rocket bodies, and fragments generated from explosions, collisions, or faulty payload assembly.

Loading next visibility...
Identifier
42104, 1981-053PQ
Orbit
LEO
Country
Flag of CISCIS
Related business
Manufacturer
Unknown
Mission
Spacecraft
Bus & Motor
Unknown
Mass
Unknown
Launch date (UTC)
1981-06-04 (45 years ago)
Launch vehicle
Unknown
Launch site
Plesetsk Missile And Space Complex (PKMTR)
Object type
Payload
Rocket body
Debris
Shape & HBR
Unknown shape, 0.1 m
Radar Cross Section
Small (<0.1 m²)

Expand to show TLE details & history
Last TLE update: 2 days ago

TLE from 2 days ago
0 COSMOS 1275 DEB
1 42104U 81053PQ  26171.00495500  .00000328  00000-0  28927-3 0  9992
2 42104  82.8767  70.0313 0042713  36.2654 324.1388 13.81977282634468
Epoch: 2026-06-20T00:07Z
TLE epoch observation values (Epoch: 2026-06-20T00:07:08.112Z)
Latitude
0.00001°
Longitude
160.02171°
Altitude
934.44 km
Speed
7.397 km/s
True Right ascension
04h 40m 07s
True Declination
0° 00' 00"
Sunlit
Object was in daylight at epoch
Visualization orbit readout
Latitude
Unknown
Longitude
Unknown
Altitude
Unknown
Speed
Unknown
Apparent Right ascension
Unknown
Apparent Declination
Unknown
Sunlit
N/A
Visualization observer readout
Local Sidereal Time
21:47:56
Azimuth
Unknown
Elevation
Unknown
Doppler factor
Unknown
Orbital elements
Apogee altitude
985.341 km
Perigee altitude
922.706 km
Semi-major axis
7,332.161 km
Eccentricity
0.00427
Inclination
82.8767°
RAAN
70.0313°
Arg. of periapsis
36.2654°
True anomaly
323.85082°
Mean anomaly
324.1388°
Eccentric anomaly
323.99494°
Mean motion
3.45697 °/min
Orbital period
104.14 mins
BSTAR
0.00028927
Loading maneuver chart data...
Computing Atmospheric mass density...

Documentation

Showing up to 5 results
|